Regional Weather Roundup
Issued by NWS State College, PA

Home | Current Version | Previous Version | Text Only | Print | Product List | Glossary On
Versions: 1 2 3 4 5 6 7 8 9 10 11 12 13 14 15 16 17 18 19 20 21 22 23 24 25 26 27 28 29 30 31 32 33 34 35 36 37 38 39 40 41 42 43 44 45 46 47 48 49 50
000
ASUS41 KCTP 061803
RWRCTP

REGIONAL WEATHER ROUNDUP
NATIONAL WEATHER SERVICE STATE COLLEGE PA
100 PM EST TUE DEC 06 2016

Note: "fair" indicates few or no clouds below 12,000 feet with no
significant weather and/or obstructions to visibility.

* = STATION THAT DOES NOT REPORT PRECIPITATION /E.G. RAIN...SNOW...ETC/
    THUNDER OR FOG.

PAZ002>004-007>009-013>016-020>023-029>032-061900-
WESTERN PENNSYLVANIA

CITY           SKY/WX    TMP DP  RH WIND       PRES   REMARKS
ERIE           CLOUDY    41  28  60 SE17G26   29.76F
MEADVILLE      LGT RAIN  36  29  75 VRB7      29.73F
FRANKLIN*        N/A     34  27  75 SE17G25   29.76F
NEW CASTLE     LGT RAIN  37  35  92 E8        29.72F
BEAVER COUNTY  LGT RAIN  37  34  87 SE10G22   29.71F
BUTLER*        CLOUDY    37  32  81 E16       29.75F
PITTSBURGH INT LGT RAIN  40  36  86 E13G22    29.70F FOG
PITTSBURGH     LGT RAIN  38  32  79 E13G22    29.71F
INDIANA*       CLOUDY    36  34  93 SE13G22   29.81F FOG
LATROBE        CLOUDY    37  32  81 S12G23    29.74F
WASHINGTON CO* CLOUDY    39  36  87 SE7       29.70F
$$

PAZ004>006-010>012-017>019-024>028-033>037-041-042-045-046-049>053-061900-
CENTRAL PENNSYLVANIA

CITY           SKY/WX    TMP DP  RH WIND       PRES   REMARKS
BRADFORD       CLOUDY    34  26  72 SE17G26   29.80F
DUBOIS         MIX PCPN  33  27  78 SE17      29.79F
CLEARFIELD     LGT RAIN  34  30  85 E6        29.87F
JOHNSTOWN      FRZ RAIN  32  30  92 SE15G26   29.78F FOG
ALTOONA        LGT RAIN  35  31  85 SE8       29.88F
STATE COLLEGE  DRIZZLE   36  28  75 SE7       29.91F
WILLIAMSPORT   CLOUDY    48  31  51 NE5       29.97F
SELINSGROVE    LGT RAIN  37  34  89 CALM      29.99F
FT INDIANTOWN  LGT RAIN  39  33  78 NE8       29.98F
CAPITAL CITY   LGT RAIN  39  32  76 E6        29.99F
HARRISBURG     LGT RAIN  39  34  82 SE6       29.98F
YORK           LGT RAIN  40  35  83 E5        29.97F
$$

PAZ038>040-043-044-047-048-054-055-060>062-067>071-061900-
EASTERN PENNSYLVANIA

CITY           SKY/WX    TMP DP  RH WIND       PRES   REMARKS
SCRANTON       CLOUDY    41  28  60 VRB6      29.97F
MOUNT POCONO   CLOUDY    34  27  75 SE14      29.95F
ALLENTOWN      CLOUDY    41  31  67 E6        30.01F
QUAKERTOWN*    CLOUDY    41  30  65 E7        30.01F
READING        CLOUDY    42  30  62 SE9       30.00F
LANCASTER      LGT RAIN  41  35  79 E7        29.99F
COATESVILLE    MIX PCPN  41  32  70 E8G15     30.00F
POTTSTOWN      CLOUDY    42  31  64 VRB6      30.02F
BLUE BELL      CLOUDY    41  32  70 E6        30.01F
DOYLESTOWN     CLOUDY    44  31  60 CALM      30.00F
WILLOW GROVE   NOT AVBL
NORTH PHILA    CLOUDY    45  33  63 E13       30.04F
PHILADELPHIA   LGT RAIN  45  35  68 E10       30.02F
$$




USA.gov is the U.S. government's official web portal to all federal, state and local government web resources and services.